Location: Bay Harbour
(38.2612°N, 75.2555°W)
Time: 02:25:55
(UTC+00:00)

Cosmos 1606 Rocket - Pass Details

Date: 29 October 2020
Orbit: 603 x 632 km, 82.5° (Epoch: 02 December)

Event Time Altitude Azimuth Distance (km) Brightness Sun altitude
Rises 22:28:19 0° 192° (SSW) 2,858 7.3 -5.4°
Reaches altitude 10° 22:30:32 10° 195° (SSW) 1,963 6.5 -5.8°
Maximum altitude 22:34:51 68° 278° (W) 667 4.0 -6.6°
Drops below altitude 10° 22:39:15 10° 2° (N) 1,996 6.0 -7.5°
Sets 22:41:31 0° 5° (N) 2,911 6.8 -7.9°
